ARG1364 SABE-SPJC

Flight info

Callsign ARG1364
Flight time 4h 22m
Altitude 36000
Route BIVAM UW8 ERE UT680 TUC UL550 SCO
Aircraft B38M/M-SDE1FGHILORVWXY/HB1

Departure

Time 2026-05-05 15:41
Airport Aeroparque Jorge Newbery (SABE)

Arrival

Time 2026-05-05 20:03
Airport Jorge Chávez International Airport (SPJC)
Time Latitude Longitude Altitude Speed Heading
2026-05-05 15:06 -34.55999 -58.40972 28 ft 0 kts 38°
2026-05-05 15:27 -34.56001 -58.40974 28 ft 2 kts 38°
2026-05-05 15:27 -34.56019 -58.40992 28 ft 3 kts 38°
2026-05-05 15:27 -34.56040 -58.41005 28 ft 4 kts 355°
2026-05-05 15:27 -34.56059 -58.40991 28 ft 4 kts 305°
2026-05-05 15:28 -34.56074 -58.40964 28 ft 3 kts 307°
2026-05-05 15:28 -34.56076 -58.40961 28 ft 0 kts 308°
2026-05-05 15:33 -34.56070 -58.40969 28 ft 3 kts 308°
2026-05-05 15:33 -34.56044 -58.41009 28 ft 8 kts 308°
2026-05-05 15:33 -34.56047 -58.41072 28 ft 8 kts 253°
2026-05-05 15:34 -34.56026 -58.41138 28 ft 9 kts 307°
2026-05-05 15:34 -34.55984 -58.41205 28 ft 11 kts 307°
2026-05-05 15:34 -34.55933 -58.41289 28 ft 16 kts 303°
2026-05-05 15:34 -34.55868 -58.41437 28 ft 24 kts 297°
2026-05-05 15:35 -34.55790 -58.41622 28 ft 25 kts 296°
2026-05-05 15:35 -34.55709 -58.41804 28 ft 22 kts 304°
2026-05-05 15:35 -34.55622 -58.41960 28 ft 23 kts 304°
2026-05-05 15:35 -34.55529 -58.42119 28 ft 24 kts 307°
2026-05-05 15:36 -34.55430 -58.42278 28 ft 21 kts 307°
2026-05-05 15:36 -34.55381 -58.42358 28 ft 6 kts 303°
2026-05-05 15:36 -34.55378 -58.42364 28 ft 0 kts 298°
2026-05-05 15:38 -34.55375 -58.42373 28 ft 2 kts 293°
2026-05-05 15:38 -34.55365 -58.42419 28 ft 10 kts 280°
2026-05-05 15:39 -34.55378 -58.42499 28 ft 11 kts 214°
2026-05-05 15:39 -34.55434 -58.42466 28 ft 9 kts 123°
2026-05-05 15:39 -34.55439 -58.42455 28 ft 0 kts 122°
2026-05-05 15:40 -34.55446 -58.42442 29 ft 7 kts 123°
2026-05-05 15:40 -34.55606 -58.42154 29 ft 79 kts 124°
2026-05-05 15:40 -34.56046 -58.41367 28 ft 143 kts 124°
2026-05-05 15:40 -34.56673 -58.40235 275 ft 170 kts 123°
2026-05-05 15:41 -34.57342 -58.39017 880 ft 177 kts 123°
2026-05-05 15:41 -34.57950 -58.37658 1141 ft 193 kts 103°
2026-05-05 15:41 -34.57843 -58.35966 1137 ft 220 kts 63°
2026-05-05 15:41 -34.56724 -58.34602 1324 ft 240 kts 23°
2026-05-05 15:42 -34.55126 -58.34061 1976 ft 243 kts
2026-05-05 15:42 -34.53487 -58.33518 2533 ft 245 kts 25°
2026-05-05 15:42 -34.52133 -58.32287 3133 ft 240 kts 37°
2026-05-05 15:42 -34.50808 -58.31051 3814 ft 243 kts 32°
2026-05-05 15:43 -34.49408 -58.29856 4437 ft 246 kts 27°
2026-05-05 15:43 -34.47849 -58.29137 5082 ft 237 kts
2026-05-05 15:43 -34.46252 -58.29332 5719 ft 229 kts 336°
2026-05-05 15:43 -34.44844 -58.30198 6387 ft 227 kts 327°
2026-05-05 15:44 -34.43516 -58.31156 6864 ft 237 kts 326°
2026-05-05 15:44 -34.42072 -58.32252 7171 ft 253 kts 324°
2026-05-05 15:44 -34.40580 -58.33423 7747 ft 255 kts 324°
2026-05-05 15:44 -34.39132 -58.34579 8292 ft 261 kts 323°
2026-05-05 15:45 -34.37611 -58.35807 8899 ft 264 kts 323°
2026-05-05 15:45 -34.36070 -58.37060 9464 ft 269 kts 322°
2026-05-05 15:45 -34.34502 -58.38339 10025 ft 274 kts 322°
2026-05-05 15:45 -34.32895 -58.39655 10352 ft 287 kts 322°
2026-05-05 15:46 -34.31186 -58.41054 10486 ft 306 kts 322°
2026-05-05 15:46 -34.29381 -58.42534 10666 ft 321 kts 323°
2026-05-05 15:46 -34.27504 -58.44071 11016 ft 328 kts 323°
2026-05-05 15:46 -34.25619 -58.45615 11605 ft 329 kts 323°
2026-05-05 15:47 -34.23716 -58.47174 12137 ft 332 kts 322°
2026-05-05 15:47 -34.22448 -58.48211 12513 ft 334 kts 322°
2026-05-05 15:47 -34.19860 -58.50327 13301 ft 338 kts 322°
2026-05-05 15:47 -34.17906 -58.51924 13896 ft 341 kts 322°
2026-05-05 15:48 -34.15935 -58.53534 14450 ft 343 kts 322°
2026-05-05 15:48 -34.13955 -58.55160 15043 ft 344 kts 320°
2026-05-05 15:48 -34.12303 -58.57213 15588 ft 341 kts 301°
2026-05-05 15:48 -34.11168 -58.59721 16114 ft 343 kts 296°
2026-05-05 15:49 -34.10081 -58.62303 16627 ft 346 kts 295°
2026-05-05 15:49 -34.09006 -58.64919 17153 ft 349 kts 295°
2026-05-05 15:49 -34.07936 -58.67556 17678 ft 352 kts 295°
2026-05-05 15:49 -34.06865 -58.70217 18201 ft 354 kts 295°
2026-05-05 15:50 -34.05790 -58.72901 18662 ft 356 kts 295°
2026-05-05 15:50 -34.05075 -58.74688 18973 ft 358 kts 295°
2026-05-05 15:50 -34.03991 -58.77398 19434 ft 360 kts 295°
2026-05-05 15:50 -34.02901 -58.80123 19899 ft 362 kts 295°
2026-05-05 15:51 -34.01804 -58.82863 20356 ft 364 kts 294°
2026-05-05 15:51 -34.00699 -58.85618 20818 ft 366 kts 294°
2026-05-05 15:51 -33.99592 -58.88380 21264 ft 368 kts 294°
2026-05-05 15:51 -33.98475 -58.91164 21713 ft 370 kts 294°
2026-05-05 15:52 -33.97100 -58.93797 22146 ft 376 kts 309°
2026-05-05 15:52 -33.95136 -58.95802 22605 ft 384 kts 322°
2026-05-05 15:52 -33.92876 -58.97544 23026 ft 388 kts 323°
2026-05-05 15:52 -33.90584 -58.99277 23475 ft 390 kts 323°
2026-05-05 15:53 -33.88267 -59.01002 23857 ft 393 kts 323°
2026-05-05 15:53 -33.85930 -59.02722 24241 ft 395 kts 323°
2026-05-05 15:53 -33.83577 -59.04445 24617 ft 397 kts 323°
2026-05-05 15:53 -33.81213 -59.06171 25001 ft 399 kts 323°
2026-05-05 15:54 -33.78836 -59.07904 25369 ft 401 kts 323°
2026-05-05 15:54 -33.76440 -59.09649 25696 ft 403 kts 323°
2026-05-05 15:54 -33.74034 -59.11400 26043 ft 406 kts 323°
2026-05-05 15:54 -33.71615 -59.13160 26396 ft 408 kts 323°
2026-05-05 15:55 -33.69181 -59.14928 26748 ft 410 kts 323°
2026-05-05 15:55 -33.66738 -59.16703 27089 ft 412 kts 323°
2026-05-05 15:55 -33.64280 -59.18487 27423 ft 414 kts 323°
2026-05-05 15:55 -33.61810 -59.20279 27758 ft 416 kts 323°
2026-05-05 15:56 -33.59338 -59.22070 28062 ft 418 kts 323°
2026-05-05 15:56 -33.56877 -59.23853 28373 ft 420 kts 323°
2026-05-05 15:56 -33.54337 -59.25692 28699 ft 422 kts 323°
2026-05-05 15:56 -33.51854 -59.27488 29007 ft 424 kts 323°
2026-05-05 15:57 -33.49324 -59.29317 29317 ft 426 kts 323°
2026-05-05 15:57 -33.46781 -59.31154 29619 ft 428 kts 322°
2026-05-05 15:57 -33.44193 -59.33022 29934 ft 429 kts 322°
2026-05-05 15:57 -33.41663 -59.34847 30201 ft 431 kts 322°
2026-05-05 15:58 -33.39094 -59.36699 30492 ft 431 kts 322°
2026-05-05 15:58 -33.36530 -59.38547 30853 ft 430 kts 322°
2026-05-05 15:58 -33.33972 -59.40388 31225 ft 428 kts 322°
2026-05-05 15:58 -33.31425 -59.42220 31612 ft 427 kts 322°
2026-05-05 15:59 -33.28881 -59.44049 31994 ft 425 kts 322°
2026-05-05 15:59 -33.26351 -59.45867 32364 ft 423 kts 322°
2026-05-05 15:59 -33.23835 -59.47673 32747 ft 422 kts 322°
2026-05-05 15:59 -33.21328 -59.49471 33082 ft 420 kts 322°
2026-05-05 16:00 -33.18829 -59.51263 33415 ft 419 kts 321°
2026-05-05 16:00 -33.16336 -59.53049 33785 ft 417 kts 321°
2026-05-05 16:00 -33.13852 -59.54828 34108 ft 416 kts 321°
2026-05-05 16:00 -33.11377 -59.56599 34376 ft 415 kts 321°
2026-05-05 16:01 -33.08900 -59.58370 34620 ft 414 kts 321°
2026-05-05 16:01 -33.06426 -59.60137 34859 ft 414 kts 321°
2026-05-05 16:01 -33.03954 -59.61903 35092 ft 414 kts 321°
2026-05-05 16:01 -33.01488 -59.63662 35284 ft 413 kts 321°
2026-05-05 16:02 -32.99024 -59.65419 35501 ft 413 kts 321°
2026-05-05 16:02 -32.96559 -59.67176 35709 ft 413 kts 320°
2026-05-05 16:02 -32.94098 -59.68929 35903 ft 413 kts 320°
2026-05-05 16:03 -32.89168 -59.72435 35958 ft 411 kts 320°
2026-05-05 16:03 -32.84265 -59.75920 35965 ft 411 kts 320°
2026-05-05 16:04 -32.79360 -59.79401 35962 ft 410 kts 320°
2026-05-05 16:04 -32.74455 -59.82877 35962 ft 410 kts 320°
2026-05-05 16:05 -32.69560 -59.86342 35964 ft 410 kts 320°
2026-05-05 16:05 -32.64656 -59.89810 35967 ft 410 kts 320°
2026-05-05 16:06 -32.59789 -59.93246 35958 ft 410 kts 320°
2026-05-05 16:06 -32.54883 -59.96709 35955 ft 410 kts 320°
2026-05-05 16:07 -32.49983 -60.00165 35959 ft 410 kts 320°
2026-05-05 16:07 -32.45074 -60.03622 35924 ft 410 kts 320°
2026-05-05 16:08 -32.40173 -60.07070 35947 ft 411 kts 320°
2026-05-05 16:08 -32.35261 -60.10520 35949 ft 410 kts 320°
2026-05-05 16:09 -32.30356 -60.13961 35952 ft 410 kts 320°
2026-05-05 16:09 -32.25445 -60.17402 35958 ft 410 kts 320°
2026-05-05 16:10 -32.20540 -60.20835 35939 ft 409 kts 320°
2026-05-05 16:10 -32.15638 -60.24261 35946 ft 409 kts 320°
2026-05-05 16:11 -32.10753 -60.27671 35949 ft 409 kts 320°
2026-05-05 16:12 -32.00953 -60.34499 35923 ft 409 kts 320°
2026-05-05 16:13 -31.88733 -60.42989 35937 ft 409 kts 320°
2026-05-05 16:13 -31.83836 -60.46385 35957 ft 409 kts 320°
2026-05-05 16:14 -31.74295 -60.53536 35932 ft 404 kts 318°
2026-05-05 16:15 -31.64891 -60.60691 35934 ft 404 kts 318°
2026-05-05 16:16 -31.55449 -60.67856 35931 ft 404 kts 318°
2026-05-05 16:17 -31.48365 -60.73219 35927 ft 404 kts 318°
2026-05-05 16:18 -31.41291 -60.78566 35891 ft 402 kts 317°
2026-05-05 16:19 -31.34226 -60.83895 35923 ft 403 kts 317°
2026-05-05 16:19 -31.27192 -60.89193 35926 ft 403 kts 318°
2026-05-05 16:20 -31.17775 -60.96269 35919 ft 403 kts 317°
2026-05-05 16:22 -31.05969 -61.05117 35925 ft 403 kts 318°
2026-05-05 16:23 -30.96530 -61.12167 35917 ft 404 kts 317°
2026-05-05 16:23 -30.89436 -61.17454 35920 ft 403 kts 317°
2026-05-05 16:24 -30.84709 -61.20972 35919 ft 403 kts 318°
2026-05-05 16:25 -30.77613 -61.26244 35902 ft 404 kts 317°
2026-05-05 16:25 -30.70500 -61.31521 35916 ft 404 kts 317°
2026-05-05 16:26 -30.61037 -61.38526 35910 ft 402 kts 317°
2026-05-05 16:27 -30.56316 -61.42014 35911 ft 402 kts 317°
2026-05-05 16:27 -30.51621 -61.45479 35909 ft 402 kts 317°
2026-05-05 16:28 -30.46893 -61.48964 35910 ft 402 kts 317°
2026-05-05 16:28 -30.42168 -61.52443 35912 ft 403 kts 317°
2026-05-05 16:29 -30.37440 -61.55921 35890 ft 403 kts 317°
2026-05-05 16:29 -30.32712 -61.59395 35908 ft 403 kts 317°
2026-05-05 16:30 -30.27975 -61.62870 35904 ft 403 kts 317°
2026-05-05 16:30 -30.23244 -61.66338 35904 ft 403 kts 317°
2026-05-05 16:31 -30.18512 -61.69802 35905 ft 403 kts 317°
2026-05-05 16:31 -30.13781 -61.73262 35890 ft 403 kts 317°
2026-05-05 16:32 -30.09030 -61.76732 35896 ft 404 kts 317°
2026-05-05 16:32 -30.04282 -61.80195 35902 ft 404 kts 317°
2026-05-05 16:33 -29.99533 -61.83656 35908 ft 404 kts 317°
2026-05-05 16:33 -29.94791 -61.87108 35872 ft 404 kts 317°
2026-05-05 16:34 -29.90030 -61.90571 35910 ft 406 kts 317°
2026-05-05 16:34 -29.85639 -61.94439 35919 ft 388 kts 307°
2026-05-05 16:35 -29.81691 -61.98719 35895 ft 390 kts 307°
2026-05-05 16:35 -29.77756 -62.03013 35900 ft 390 kts 307°
2026-05-05 16:36 -29.73821 -62.07311 35871 ft 390 kts 307°
2026-05-05 16:36 -29.70547 -62.10885 35898 ft 392 kts 307°
2026-05-05 16:37 -29.65937 -62.15910 35890 ft 392 kts 307°
2026-05-05 16:37 -29.61981 -62.20218 35895 ft 392 kts 307°
2026-05-05 16:38 -29.58667 -62.23822 35896 ft 391 kts 307°
2026-05-05 16:38 -29.54721 -62.28110 35893 ft 390 kts 307°
2026-05-05 16:39 -29.50771 -62.32397 35887 ft 392 kts 308°
2026-05-05 16:39 -29.46801 -62.36701 35888 ft 392 kts 308°
2026-05-05 16:40 -29.42858 -62.40971 35888 ft 392 kts 308°
2026-05-05 16:40 -29.38888 -62.45265 35886 ft 392 kts 308°
2026-05-05 16:41 -29.34917 -62.49555 35886 ft 392 kts 308°
2026-05-05 16:41 -29.30936 -62.53851 35878 ft 393 kts 308°
2026-05-05 16:42 -29.26951 -62.58148 35879 ft 393 kts 308°
2026-05-05 16:42 -29.22972 -62.62432 35881 ft 393 kts 308°
2026-05-05 16:43 -29.18988 -62.66717 35881 ft 393 kts 308°
2026-05-05 16:43 -29.15004 -62.70999 35881 ft 393 kts 308°
2026-05-05 16:44 -29.11017 -62.75276 35857 ft 393 kts 308°
2026-05-05 16:44 -29.07030 -62.79551 35875 ft 397 kts 308°
2026-05-05 16:45 -29.03010 -62.83857 35883 ft 396 kts 308°
2026-05-05 16:45 -28.99008 -62.88139 35872 ft 393 kts 308°
2026-05-05 16:46 -28.95011 -62.92406 35875 ft 394 kts 308°
2026-05-05 16:46 -28.91009 -62.96675 35861 ft 393 kts 308°
2026-05-05 16:47 -28.86997 -63.00950 35878 ft 397 kts 308°
2026-05-05 16:47 -28.82960 -63.05248 35874 ft 396 kts 308°
2026-05-05 16:48 -28.78930 -63.09534 35876 ft 396 kts 308°
2026-05-05 16:48 -28.74894 -63.13820 35870 ft 396 kts 309°
2026-05-05 16:49 -28.70869 -63.18091 35865 ft 394 kts 308°
2026-05-05 16:49 -28.66845 -63.22356 35867 ft 396 kts 309°
2026-05-05 16:50 -28.62800 -63.26639 35865 ft 397 kts 309°
2026-05-05 16:50 -28.58783 -63.30887 35866 ft 397 kts 309°
2026-05-05 16:51 -28.54731 -63.35166 35868 ft 397 kts 309°
2026-05-05 16:51 -28.50690 -63.39431 35869 ft 397 kts 309°
2026-05-05 16:52 -28.46645 -63.43695 35862 ft 396 kts 309°
2026-05-05 16:52 -28.42603 -63.47950 35861 ft 395 kts 309°
2026-05-05 16:53 -28.38573 -63.52188 35865 ft 395 kts 309°
2026-05-05 16:53 -28.34540 -63.56425 35862 ft 395 kts 309°
2026-05-05 16:54 -28.30507 -63.60658 35861 ft 395 kts 309°
2026-05-05 16:54 -28.26477 -63.64883 35851 ft 395 kts 309°
2026-05-05 16:55 -28.22424 -63.69128 35866 ft 397 kts 309°
2026-05-05 16:55 -28.18362 -63.73376 35864 ft 397 kts 309°
2026-05-05 16:56 -28.14331 -63.77588 35853 ft 395 kts 309°
2026-05-05 16:56 -28.10294 -63.81804 35855 ft 395 kts 309°
2026-05-05 16:57 -28.06253 -63.86024 35856 ft 395 kts 309°
2026-05-05 16:57 -28.02213 -63.90255 35859 ft 397 kts 309°
2026-05-05 16:58 -27.98147 -63.94508 35860 ft 398 kts 309°
2026-05-05 16:58 -27.94087 -63.98751 35870 ft 398 kts 309°
2026-05-05 16:59 -27.90019 -64.02997 35870 ft 398 kts 309°
2026-05-05 16:59 -27.85958 -64.07231 35890 ft 396 kts 309°
2026-05-05 17:00 -27.81918 -64.11439 35864 ft 395 kts 309°
2026-05-05 17:00 -27.77853 -64.15669 35900 ft 398 kts 309°
2026-05-05 17:01 -27.73786 -64.19897 35908 ft 398 kts 309°
2026-05-05 17:01 -27.69714 -64.24125 35910 ft 398 kts 309°
2026-05-05 17:02 -27.65664 -64.28325 35908 ft 398 kts 309°
2026-05-05 17:02 -27.61590 -64.32546 35900 ft 398 kts 309°
2026-05-05 17:03 -27.57514 -64.36765 35894 ft 399 kts 310°
2026-05-05 17:03 -27.53424 -64.40994 35880 ft 398 kts 310°
2026-05-05 17:04 -27.49344 -64.45208 35873 ft 398 kts 310°
2026-05-05 17:04 -27.45257 -64.49425 35867 ft 398 kts 310°
2026-05-05 17:05 -27.41172 -64.53635 35867 ft 398 kts 310°
2026-05-05 17:05 -27.37086 -64.57842 35842 ft 398 kts 310°
2026-05-05 17:06 -27.32967 -64.62045 35869 ft 401 kts 310°
2026-05-05 17:06 -27.28847 -64.66220 35865 ft 401 kts 310°
2026-05-05 17:07 -27.24709 -64.70412 35868 ft 401 kts 310°
2026-05-05 17:07 -27.20569 -64.74601 35862 ft 401 kts 310°
2026-05-05 17:08 -27.16429 -64.78786 35869 ft 401 kts 310°
2026-05-05 17:08 -27.12281 -64.82975 35857 ft 402 kts 310°
2026-05-05 17:09 -27.08109 -64.87184 35866 ft 403 kts 310°
2026-05-05 17:09 -27.03939 -64.91386 35880 ft 403 kts 310°
2026-05-05 17:10 -26.99769 -64.95583 35893 ft 403 kts 310°
2026-05-05 17:10 -26.95600 -64.99776 35912 ft 402 kts 310°
2026-05-05 17:11 -26.91477 -65.03918 35884 ft 400 kts 311°
2026-05-05 17:11 -26.87309 -65.08102 35917 ft 404 kts 311°
2026-05-05 17:12 -26.83033 -65.12187 35923 ft 406 kts 313°
2026-05-05 17:12 -26.78659 -65.16177 35911 ft 405 kts 313°
2026-05-05 17:13 -26.74290 -65.20176 35907 ft 406 kts 313°
2026-05-05 17:13 -26.69926 -65.24169 35884 ft 405 kts 313°
2026-05-05 17:14 -26.65553 -65.28165 35894 ft 406 kts 313°
2026-05-05 17:14 -26.61184 -65.32154 35910 ft 405 kts 313°
2026-05-05 17:15 -26.56826 -65.36128 35926 ft 404 kts 313°
2026-05-05 17:15 -26.52466 -65.40100 35931 ft 405 kts 313°
2026-05-05 17:16 -26.48103 -65.44068 35918 ft 405 kts 314°
2026-05-05 17:16 -26.43729 -65.48048 35926 ft 406 kts 314°
2026-05-05 17:17 -26.39356 -65.52019 35945 ft 405 kts 314°
2026-05-05 17:17 -26.34992 -65.55977 35923 ft 408 kts 314°
2026-05-05 17:18 -26.30603 -65.59958 35948 ft 407 kts 314°
2026-05-05 17:18 -26.26209 -65.63943 35942 ft 407 kts 314°
2026-05-05 17:19 -26.21804 -65.67899 35979 ft 409 kts 314°
2026-05-05 17:19 -26.17560 -65.72029 35983 ft 404 kts 313°
2026-05-05 17:20 -26.13094 -65.75852 35972 ft 405 kts 314°
2026-05-05 17:20 -26.08693 -65.79759 35957 ft 404 kts 314°
2026-05-05 17:21 -26.04329 -65.83678 35936 ft 403 kts 314°
2026-05-05 17:22 -25.97784 -65.89556 35962 ft 403 kts 314°
2026-05-05 17:22 -25.93441 -65.93453 35964 ft 404 kts 314°
2026-05-05 17:23 -25.89077 -65.97364 35948 ft 401 kts 314°
2026-05-05 17:23 -25.84730 -66.01257 35953 ft 402 kts 314°
2026-05-05 17:24 -25.80373 -66.05155 35956 ft 402 kts 314°
2026-05-05 17:24 -25.76019 -66.09047 35928 ft 402 kts 314°
2026-05-05 17:25 -25.71661 -66.12940 35961 ft 402 kts 315°
2026-05-05 17:25 -25.67323 -66.16812 35964 ft 405 kts 314°
2026-05-05 17:26 -25.62929 -66.20728 35949 ft 405 kts 314°
2026-05-05 17:26 -25.58510 -66.24663 35952 ft 405 kts 314°
2026-05-05 17:27 -25.54154 -66.28538 35982 ft 404 kts 315°
2026-05-05 17:27 -25.49758 -66.32446 35987 ft 406 kts 315°
2026-05-05 17:28 -25.46098 -66.35696 35976 ft 405 kts 315°
2026-05-05 17:28 -25.41702 -66.39599 35998 ft 404 kts 315°
2026-05-05 17:29 -25.37314 -66.43487 36069 ft 406 kts 315°
2026-05-05 17:29 -25.32894 -66.47394 36021 ft 406 kts 315°
2026-05-05 17:30 -25.28489 -66.51220 36112 ft 406 kts 320°
2026-05-05 17:30 -25.26010 -66.52768 35964 ft 410 kts 326°
2026-05-05 17:30 -25.23671 -66.54414 36210 ft 391 kts 311°
2026-05-05 17:31 -25.20203 -66.58953 36093 ft 394 kts 314°
2026-05-05 17:31 -25.15730 -66.62609 36143 ft 403 kts 316°
2026-05-05 17:32 -25.11307 -66.66470 36165 ft 407 kts 315°
2026-05-05 17:32 -25.06918 -66.70331 36189 ft 407 kts 315°
2026-05-05 17:33 -25.02498 -66.74219 36185 ft 406 kts 315°
2026-05-05 17:33 -24.98077 -66.78105 36171 ft 406 kts 315°
2026-05-05 17:34 -24.93657 -66.81985 36165 ft 407 kts 316°
2026-05-05 17:34 -24.89231 -66.85871 36197 ft 408 kts 316°
2026-05-05 17:35 -24.84788 -66.89763 36175 ft 409 kts 316°
2026-05-05 17:35 -24.80341 -66.93658 36164 ft 407 kts 316°
2026-05-05 17:36 -24.75903 -66.97541 36156 ft 408 kts 316°
2026-05-05 17:36 -24.71463 -67.01421 36148 ft 407 kts 316°
2026-05-05 17:37 -24.67046 -67.05278 36147 ft 409 kts 316°
2026-05-05 17:37 -24.62582 -67.09171 36147 ft 410 kts 316°
2026-05-05 17:38 -24.58117 -67.13063 36133 ft 409 kts 316°
2026-05-05 17:38 -24.53659 -67.16945 36120 ft 409 kts 316°
2026-05-05 17:39 -24.49195 -67.20829 36111 ft 410 kts 316°
2026-05-05 17:39 -24.44706 -67.24730 36091 ft 412 kts 316°
2026-05-05 17:40 -24.40219 -67.28626 36087 ft 410 kts 316°
2026-05-05 17:40 -24.35748 -67.32505 36109 ft 410 kts 317°
2026-05-05 17:41 -24.31262 -67.36392 36149 ft 412 kts 316°
2026-05-05 17:41 -24.26779 -67.40274 36124 ft 410 kts 316°
2026-05-05 17:42 -24.22297 -67.44153 36125 ft 411 kts 316°
2026-05-05 17:42 -24.17845 -67.48001 36108 ft 410 kts 316°
2026-05-05 17:43 -24.13364 -67.51871 36126 ft 410 kts 317°
2026-05-05 17:43 -24.08853 -67.55691 36139 ft 410 kts 317°
2026-05-05 17:44 -24.04363 -67.59478 36131 ft 406 kts 317°
2026-05-05 17:44 -23.99874 -67.63263 36137 ft 410 kts 317°
2026-05-05 17:45 -23.95365 -67.67060 36146 ft 407 kts 317°
2026-05-05 17:45 -23.90879 -67.70836 36140 ft 409 kts 318°
2026-05-05 17:46 -23.86340 -67.74652 36124 ft 411 kts 318°
2026-05-05 17:46 -23.81802 -67.78465 36136 ft 411 kts 318°
2026-05-05 17:47 -23.77266 -67.82272 36100 ft 412 kts 318°
2026-05-05 17:47 -23.72724 -67.86081 36077 ft 411 kts 318°
2026-05-05 17:48 -23.68183 -67.89885 36077 ft 411 kts 318°
2026-05-05 17:48 -23.63640 -67.93688 36030 ft 411 kts 318°
2026-05-05 17:49 -23.59100 -67.97485 36007 ft 411 kts 318°
2026-05-05 17:49 -23.54587 -68.01256 36013 ft 411 kts 318°
2026-05-05 17:50 -23.50050 -68.05043 36021 ft 411 kts 318°
2026-05-05 17:50 -23.45505 -68.08835 36009 ft 411 kts 318°
2026-05-05 17:51 -23.40956 -68.12625 35988 ft 412 kts 318°
2026-05-05 17:51 -23.36388 -68.16428 36003 ft 415 kts 318°
2026-05-05 17:52 -23.31808 -68.20238 35964 ft 414 kts 318°
2026-05-05 17:52 -23.27249 -68.24027 35956 ft 411 kts 318°
2026-05-05 17:53 -23.22698 -68.27806 35958 ft 412 kts 318°
2026-05-05 17:53 -23.18174 -68.31559 35971 ft 412 kts 318°
2026-05-05 17:54 -23.13621 -68.35333 35940 ft 412 kts 318°
2026-05-05 17:54 -23.09052 -68.39115 35959 ft 414 kts 318°
2026-05-05 17:55 -23.04477 -68.42903 35946 ft 413 kts 318°
2026-05-05 17:55 -22.99901 -68.46687 35960 ft 413 kts 318°
2026-05-05 17:56 -22.95322 -68.50467 35979 ft 413 kts 318°
2026-05-05 17:56 -22.90747 -68.54241 35971 ft 412 kts 318°
2026-05-05 17:57 -22.86230 -68.57965 35967 ft 410 kts 318°
2026-05-05 17:57 -22.81677 -68.61715 35990 ft 411 kts 318°
2026-05-05 17:58 -22.77126 -68.65460 35989 ft 411 kts 318°
2026-05-05 17:58 -22.72581 -68.69197 36067 ft 410 kts 319°
2026-05-05 17:59 -22.68034 -68.72932 36147 ft 410 kts 319°
2026-05-05 17:59 -22.63483 -68.76667 36223 ft 410 kts 319°
2026-05-05 18:00 -22.58929 -68.80401 36281 ft 411 kts 320°
2026-05-05 18:00 -22.54357 -68.84148 36346 ft 412 kts 319°
2026-05-05 18:01 -22.49846 -68.87923 36000 ft 410 kts 317°
2026-05-05 18:01 -22.45474 -68.91884 35997 ft 410 kts 317°
2026-05-05 18:02 -22.41082 -68.95828 35996 ft 410 kts 317°
2026-05-05 18:02 -22.36701 -68.99756 36001 ft 409 kts 317°
2026-05-05 18:03 -22.32344 -69.03659 36002 ft 411 kts 318°
2026-05-05 18:03 -22.27897 -69.07639 36016 ft 418 kts 318°
2026-05-05 18:04 -22.23418 -69.11644 36013 ft 418 kts 318°
2026-05-05 18:04 -22.18939 -69.15645 36012 ft 418 kts 318°
2026-05-05 18:05 -22.14454 -69.19649 36021 ft 418 kts 318°
2026-05-05 18:05 -22.09997 -69.23624 36017 ft 414 kts 318°
2026-05-05 18:06 -22.05556 -69.27581 35982 ft 415 kts 317°
2026-05-05 18:06 -22.01094 -69.31554 35995 ft 417 kts 317°
2026-05-05 18:07 -21.96623 -69.35531 35999 ft 416 kts 317°
2026-05-05 18:07 -21.92154 -69.39504 35974 ft 416 kts 317°
2026-05-05 18:08 -21.87748 -69.43417 35971 ft 416 kts 317°
2026-05-05 18:08 -21.83304 -69.47361 35969 ft 416 kts 317°
2026-05-05 18:09 -21.78839 -69.51320 35972 ft 416 kts 317°
2026-05-05 18:09 -21.74363 -69.55285 35959 ft 418 kts 317°
2026-05-05 18:10 -21.69870 -69.59262 35954 ft 418 kts 317°
2026-05-05 18:10 -21.65381 -69.63232 35954 ft 418 kts 317°
2026-05-05 18:11 -21.60887 -69.67203 35965 ft 418 kts 317°
2026-05-05 18:11 -21.56391 -69.71174 35962 ft 417 kts 317°
2026-05-05 18:12 -21.51907 -69.75129 35962 ft 418 kts 317°
2026-05-05 18:12 -21.47419 -69.79086 35956 ft 417 kts 318°
2026-05-05 18:13 -21.42961 -69.83011 35963 ft 417 kts 318°
2026-05-05 18:13 -21.38479 -69.86956 35970 ft 417 kts 318°
2026-05-05 18:14 -21.34010 -69.90886 35957 ft 415 kts 318°
2026-05-05 18:14 -21.29540 -69.94814 35974 ft 416 kts 318°
2026-05-05 18:15 -21.25068 -69.98740 35975 ft 415 kts 318°
2026-05-05 18:15 -21.20593 -70.02666 35965 ft 417 kts 318°
2026-05-05 18:16 -21.16085 -70.06617 35969 ft 419 kts 318°
2026-05-05 18:16 -21.11579 -70.10563 35981 ft 419 kts 318°
2026-05-05 18:17 -21.07826 -70.13848 35958 ft 419 kts 318°
2026-05-05 18:17 -21.03330 -70.17781 35976 ft 419 kts 318°
2026-05-05 18:18 -20.98085 -70.22363 35976 ft 418 kts 318°
2026-05-05 18:18 -20.94321 -70.25649 35974 ft 417 kts 318°
2026-05-05 18:19 -20.89825 -70.29573 35976 ft 417 kts 318°
2026-05-05 18:19 -20.85327 -70.33496 35975 ft 417 kts 318°
2026-05-05 18:20 -20.80857 -70.37391 35972 ft 417 kts 318°
2026-05-05 18:20 -20.76362 -70.41304 35972 ft 417 kts 318°
2026-05-05 18:21 -20.71859 -70.45221 35974 ft 417 kts 318°
2026-05-05 18:21 -20.67361 -70.49132 35971 ft 417 kts 318°
2026-05-05 18:22 -20.62848 -70.53052 35973 ft 420 kts 319°
2026-05-05 18:22 -20.58325 -70.56982 35968 ft 418 kts 319°
2026-05-05 18:23 -20.53813 -70.60900 35969 ft 418 kts 319°
2026-05-05 18:23 -20.49303 -70.64813 35969 ft 418 kts 319°
2026-05-05 18:24 -20.44788 -70.68727 35971 ft 418 kts 319°
2026-05-05 18:24 -20.40305 -70.72610 35967 ft 418 kts 319°
2026-05-05 18:25 -20.35764 -70.76539 35957 ft 418 kts 319°
2026-05-05 18:25 -20.31263 -70.80428 35965 ft 419 kts 319°
2026-05-05 18:26 -20.26729 -70.84342 35964 ft 419 kts 319°
2026-05-05 18:26 -20.22195 -70.88254 35975 ft 419 kts 319°
2026-05-05 18:27 -20.17672 -70.92152 35963 ft 418 kts 319°
2026-05-05 18:27 -20.13157 -70.96042 35966 ft 418 kts 319°
2026-05-05 18:28 -20.06379 -71.01875 35952 ft 418 kts 320°
2026-05-05 18:28 -20.01842 -71.05775 35969 ft 420 kts 320°
2026-05-05 18:29 -19.97303 -71.09675 35965 ft 420 kts 320°
2026-05-05 18:29 -19.92763 -71.13572 35966 ft 419 kts 320°
2026-05-05 18:30 -19.88252 -71.17440 35962 ft 419 kts 320°
2026-05-05 18:30 -19.83706 -71.21337 35962 ft 420 kts 320°
2026-05-05 18:31 -19.79168 -71.25223 35959 ft 420 kts 320°
2026-05-05 18:31 -19.74611 -71.29123 35962 ft 422 kts 320°
2026-05-05 18:32 -19.70043 -71.33030 35960 ft 421 kts 320°
2026-05-05 18:32 -19.65478 -71.36931 35957 ft 422 kts 320°
2026-05-05 18:33 -19.60916 -71.40826 35959 ft 421 kts 320°
2026-05-05 18:33 -19.56345 -71.44726 35955 ft 421 kts 320°
2026-05-05 18:34 -19.51774 -71.48623 35960 ft 422 kts 320°
2026-05-05 18:34 -19.47206 -71.52515 35950 ft 422 kts 320°
2026-05-05 18:35 -19.42617 -71.56421 35961 ft 423 kts 320°
2026-05-05 18:35 -19.38039 -71.60316 35957 ft 423 kts 320°
2026-05-05 18:36 -19.33452 -71.64215 35952 ft 423 kts 320°
2026-05-05 18:36 -19.28863 -71.68113 35953 ft 423 kts 320°
2026-05-05 18:37 -19.24274 -71.72008 35955 ft 423 kts 320°
2026-05-05 18:37 -19.19689 -71.75897 35944 ft 423 kts 320°
2026-05-05 18:38 -19.15096 -71.79790 35953 ft 423 kts 320°
2026-05-05 18:38 -19.10498 -71.83684 35954 ft 423 kts 320°
2026-05-05 18:39 -19.05900 -71.87574 35958 ft 423 kts 320°
2026-05-05 18:39 -19.01335 -71.91435 35952 ft 423 kts 320°
2026-05-05 18:40 -18.96743 -71.95315 35951 ft 422 kts 320°
2026-05-05 18:40 -18.92160 -71.99186 35953 ft 422 kts 320°
2026-05-05 18:41 -18.87565 -72.03063 35946 ft 423 kts 320°
2026-05-05 18:41 -18.82970 -72.06938 35951 ft 423 kts 320°
2026-05-05 18:42 -18.78370 -72.10814 35950 ft 423 kts 320°
2026-05-05 18:42 -18.73769 -72.14688 35950 ft 423 kts 320°
2026-05-05 18:43 -18.69168 -72.18559 35952 ft 423 kts 320°
2026-05-05 18:43 -18.64566 -72.22429 35952 ft 423 kts 320°
2026-05-05 18:44 -18.59969 -72.26291 35946 ft 423 kts 321°
2026-05-05 18:44 -18.55362 -72.30159 35949 ft 423 kts 321°
2026-05-05 18:45 -18.50784 -72.34001 35949 ft 423 kts 321°
2026-05-05 18:45 -18.46181 -72.37860 35949 ft 423 kts 321°
2026-05-05 18:46 -18.41576 -72.41720 35953 ft 423 kts 321°
2026-05-05 18:46 -18.36966 -72.45580 35952 ft 423 kts 321°
2026-05-05 18:47 -18.32606 -72.49229 35950 ft 423 kts 321°
2026-05-05 18:47 -18.27999 -72.53083 35940 ft 424 kts 321°
2026-05-05 18:48 -18.23378 -72.56948 35950 ft 425 kts 321°
2026-05-05 18:48 -18.18749 -72.60816 35957 ft 425 kts 321°
2026-05-05 18:49 -18.14132 -72.64672 35952 ft 423 kts 321°
2026-05-05 18:49 -18.09514 -72.68526 35953 ft 424 kts 321°
2026-05-05 18:50 -18.04903 -72.72372 35953 ft 424 kts 321°
2026-05-05 18:50 -18.00316 -72.76194 35952 ft 424 kts 321°
2026-05-05 18:51 -17.95699 -72.80040 35949 ft 424 kts 321°
2026-05-05 18:51 -17.91080 -72.83883 35950 ft 423 kts 321°
2026-05-05 18:52 -17.86458 -72.87728 35953 ft 424 kts 321°
2026-05-05 18:52 -17.81841 -72.91565 35953 ft 424 kts 321°
2026-05-05 18:53 -17.77219 -72.95404 35957 ft 423 kts 321°
2026-05-05 18:53 -17.72610 -72.99230 35952 ft 422 kts 321°
2026-05-05 18:54 -17.68005 -73.03048 35941 ft 423 kts 321°
2026-05-05 18:54 -17.63386 -73.06878 35953 ft 424 kts 321°
2026-05-05 18:55 -17.58790 -73.10684 35955 ft 424 kts 321°
2026-05-05 18:55 -17.54161 -73.14516 35955 ft 424 kts 321°
2026-05-05 18:56 -17.49536 -73.18342 35952 ft 424 kts 321°
2026-05-05 18:56 -17.44908 -73.22168 35952 ft 424 kts 321°
2026-05-05 18:57 -17.40282 -73.25989 35955 ft 424 kts 321°
2026-05-05 18:57 -17.35653 -73.29811 35948 ft 424 kts 321°
2026-05-05 18:58 -17.31006 -73.33644 35952 ft 424 kts 321°
2026-05-05 18:58 -17.26379 -73.37460 35953 ft 424 kts 321°
2026-05-05 18:59 -17.21741 -73.41280 35952 ft 424 kts 321°
2026-05-05 18:59 -17.17106 -73.45097 35953 ft 424 kts 321°
2026-05-05 19:00 -17.12475 -73.48908 35954 ft 424 kts 321°
2026-05-05 19:00 -17.07872 -73.52693 35955 ft 424 kts 321°
2026-05-05 19:01 -17.03237 -73.56502 35949 ft 425 kts 321°
2026-05-05 19:01 -16.98579 -73.60327 35952 ft 426 kts 321°
2026-05-05 19:02 -16.93922 -73.64149 35952 ft 426 kts 321°
2026-05-05 19:02 -16.89272 -73.67963 35954 ft 425 kts 321°
2026-05-05 19:03 -16.84628 -73.71770 35952 ft 425 kts 321°
2026-05-05 19:03 -16.79978 -73.75578 35953 ft 425 kts 321°
2026-05-05 19:04 -16.75327 -73.79386 35953 ft 425 kts 321°
2026-05-05 19:04 -16.70663 -73.83202 35953 ft 426 kts 322°
2026-05-05 19:05 -16.65999 -73.87015 35956 ft 427 kts 322°
2026-05-05 19:05 -16.61358 -73.90808 35956 ft 427 kts 322°
2026-05-05 19:06 -16.56684 -73.94623 35953 ft 426 kts 322°
2026-05-05 19:06 -16.52015 -73.98431 35950 ft 426 kts 322°
2026-05-05 19:07 -16.48105 -74.01618 35954 ft 426 kts 321°
2026-05-05 19:07 -16.42684 -74.06033 35947 ft 425 kts 322°
2026-05-05 19:08 -16.38802 -74.09194 35956 ft 427 kts 322°
2026-05-05 19:08 -16.34116 -74.13007 35955 ft 427 kts 322°
2026-05-05 19:09 -16.29428 -74.16819 35955 ft 427 kts 322°
2026-05-05 19:09 -16.24747 -74.20622 35955 ft 427 kts 322°
2026-05-05 19:10 -16.20056 -74.24432 35954 ft 427 kts 322°
2026-05-05 19:10 -16.15368 -74.28237 35955 ft 427 kts 322°
2026-05-05 19:11 -16.10680 -74.32039 35941 ft 427 kts 322°
2026-05-05 19:11 -16.05976 -74.35853 35965 ft 430 kts 322°
2026-05-05 19:12 -16.01270 -74.39665 35956 ft 428 kts 322°
2026-05-05 19:12 -15.96572 -74.43469 35958 ft 428 kts 322°
2026-05-05 19:13 -15.91873 -74.47271 35957 ft 428 kts 322°
2026-05-05 19:13 -15.87178 -74.51067 35961 ft 428 kts 322°
2026-05-05 19:14 -15.82508 -74.54841 35961 ft 428 kts 322°
2026-05-05 19:14 -15.77807 -74.58639 35951 ft 428 kts 322°
2026-05-05 19:15 -15.73090 -74.62446 35966 ft 430 kts 322°
2026-05-05 19:15 -15.68372 -74.66252 35960 ft 430 kts 322°
2026-05-05 19:16 -15.63659 -74.70051 35964 ft 430 kts 322°
2026-05-05 19:16 -15.58936 -74.73857 35963 ft 430 kts 322°
2026-05-05 19:17 -15.54213 -74.77660 35960 ft 430 kts 322°
2026-05-05 19:17 -15.49491 -74.81460 35961 ft 430 kts 322°
2026-05-05 19:18 -15.44764 -74.85262 35956 ft 431 kts 322°
2026-05-05 19:18 -15.40008 -74.89085 35966 ft 433 kts 322°
2026-05-05 19:19 -15.35255 -74.92903 35963 ft 433 kts 322°
2026-05-05 19:19 -15.30526 -74.96700 35965 ft 433 kts 322°
2026-05-05 19:20 -15.25775 -75.00512 35966 ft 432 kts 322°
2026-05-05 19:20 -15.21013 -75.04331 35962 ft 432 kts 322°
2026-05-05 19:21 -15.16258 -75.08142 35952 ft 432 kts 322°
2026-05-05 19:21 -15.11501 -75.11951 35944 ft 434 kts 322°
2026-05-05 19:22 -15.06717 -75.15781 35950 ft 435 kts 322°
2026-05-05 19:22 -15.01932 -75.19609 35951 ft 435 kts 322°
2026-05-05 19:23 -14.97144 -75.23437 35941 ft 435 kts 322°
2026-05-05 19:23 -14.92355 -75.27264 35939 ft 435 kts 322°
2026-05-05 19:24 -14.87567 -75.31089 35930 ft 435 kts 322°
2026-05-05 19:24 -14.82802 -75.34891 35935 ft 435 kts 322°
2026-05-05 19:25 -14.78009 -75.38715 35939 ft 435 kts 322°
2026-05-05 19:25 -14.73215 -75.42537 35927 ft 435 kts 322°
2026-05-05 19:26 -14.68436 -75.46345 35933 ft 433 kts 322°
2026-05-05 19:26 -14.63668 -75.50142 35935 ft 433 kts 322°
2026-05-05 19:27 -14.58894 -75.53942 35936 ft 433 kts 322°
2026-05-05 19:27 -14.54124 -75.57736 35935 ft 433 kts 322°
2026-05-05 19:28 -14.49385 -75.61504 35936 ft 433 kts 322°
2026-05-05 19:28 -14.44598 -75.65308 35931 ft 436 kts 322°
2026-05-05 19:29 -14.39793 -75.69123 35935 ft 436 kts 322°
2026-05-05 19:29 -14.34989 -75.72936 35933 ft 436 kts 322°
2026-05-05 19:30 -14.30189 -75.76744 35934 ft 436 kts 322°
2026-05-05 19:30 -14.25386 -75.80551 35934 ft 435 kts 322°
2026-05-05 19:31 -14.20600 -75.84344 35933 ft 434 kts 322°
2026-05-05 19:31 -14.15814 -75.88134 35931 ft 434 kts 322°
2026-05-05 19:32 -14.11020 -75.91928 35930 ft 436 kts 322°
2026-05-05 19:32 -14.06208 -75.95736 35930 ft 436 kts 322°
2026-05-05 19:33 -14.01393 -75.99542 35937 ft 436 kts 322°
2026-05-05 19:33 -13.96580 -76.03346 35935 ft 436 kts 322°
2026-05-05 19:34 -13.91762 -76.07151 35939 ft 436 kts 322°
2026-05-05 19:35 -13.84576 -76.12824 35941 ft 436 kts 322°
2026-05-05 19:35 -13.79762 -76.16622 35937 ft 436 kts 322°
2026-05-05 19:36 -13.74935 -76.20427 35940 ft 437 kts 323°
2026-05-05 19:36 -13.69785 -76.23738 35939 ft 437 kts 328°
2026-05-05 19:37 -13.64610 -76.27027 35939 ft 437 kts 327°
2026-05-05 19:37 -13.59449 -76.30332 35938 ft 437 kts 327°
2026-05-05 19:38 -13.54289 -76.33636 35937 ft 437 kts 327°
2026-05-05 19:38 -13.49130 -76.36939 35934 ft 437 kts 327°
2026-05-05 19:39 -13.43960 -76.40247 35929 ft 439 kts 327°
2026-05-05 19:39 -13.38767 -76.43568 35935 ft 439 kts 327°
2026-05-05 19:40 -13.33615 -76.46860 35136 ft 436 kts 328°
2026-05-05 19:40 -13.31024 -76.48514 34353 ft 439 kts 328°
2026-05-05 19:40 -13.28437 -76.50167 33750 ft 438 kts 329°
2026-05-05 19:40 -13.25861 -76.51814 33214 ft 434 kts 329°
2026-05-05 19:41 -13.23313 -76.53440 32689 ft 429 kts 329°
2026-05-05 19:41 -13.20787 -76.55053 32166 ft 426 kts 329°
2026-05-05 19:41 -13.18281 -76.56652 31646 ft 423 kts 329°
2026-05-05 19:41 -13.15822 -76.58221 31135 ft 420 kts 330°
2026-05-05 19:42 -13.13348 -76.59799 30622 ft 418 kts 330°
2026-05-05 19:42 -13.10849 -76.61392 30103 ft 416 kts 330°
2026-05-05 19:42 -13.08425 -76.62938 29528 ft 415 kts 330°
2026-05-05 19:42 -13.05988 -76.64492 28974 ft 412 kts 330°
2026-05-05 19:43 -13.03554 -76.66043 28476 ft 409 kts 330°
2026-05-05 19:43 -13.01146 -76.67577 27993 ft 406 kts 330°
2026-05-05 19:43 -12.98750 -76.69103 27499 ft 404 kts 330°
2026-05-05 19:43 -12.96372 -76.70618 27013 ft 401 kts 330°
2026-05-05 19:44 -12.94007 -76.72123 26531 ft 400 kts 330°
2026-05-05 19:44 -12.91643 -76.73628 26051 ft 398 kts 330°
2026-05-05 19:44 -12.89295 -76.75122 25574 ft 397 kts 330°
2026-05-05 19:44 -12.86954 -76.76611 25096 ft 396 kts 330°
2026-05-05 19:45 -12.84618 -76.78097 24630 ft 395 kts 330°
2026-05-05 19:45 -12.82281 -76.79583 24163 ft 395 kts 330°
2026-05-05 19:45 -12.79978 -76.81047 23703 ft 395 kts 329°
2026-05-05 19:45 -12.77643 -76.82532 23171 ft 395 kts 330°
2026-05-05 19:46 -12.75312 -76.84013 22663 ft 394 kts 330°
2026-05-05 19:46 -12.72992 -76.85487 22197 ft 391 kts 330°
2026-05-05 19:46 -12.70684 -76.86953 21757 ft 389 kts 330°
2026-05-05 19:46 -12.68389 -76.88410 21313 ft 387 kts 330°
2026-05-05 19:47 -12.66102 -76.89863 20873 ft 386 kts 330°
2026-05-05 19:47 -12.63831 -76.91305 20447 ft 384 kts 330°
2026-05-05 19:47 -12.61580 -76.92734 20217 ft 376 kts 330°
2026-05-05 19:47 -12.59386 -76.94126 20065 ft 367 kts 330°
2026-05-05 19:48 -12.57208 -76.95427 19782 ft 360 kts 337°
2026-05-05 19:48 -12.54934 -76.96510 19364 ft 360 kts 337°
2026-05-05 19:48 -12.52675 -76.97611 18955 ft 359 kts 336°
2026-05-05 19:48 -12.50420 -76.98723 18510 ft 360 kts 336°
2026-05-05 19:49 -12.48161 -76.99846 18021 ft 362 kts 336°
2026-05-05 19:49 -12.46658 -77.00596 17677 ft 363 kts 336°
2026-05-05 19:49 -12.43623 -77.02111 17034 ft 363 kts 335°
2026-05-05 19:49 -12.41354 -77.03244 16556 ft 363 kts 335°
2026-05-05 19:50 -12.39087 -77.04377 16094 ft 363 kts 335°
2026-05-05 19:50 -12.36816 -77.05511 15630 ft 363 kts 335°
2026-05-05 19:50 -12.34546 -77.06644 15158 ft 363 kts 335°
2026-05-05 19:50 -12.32273 -77.07779 14704 ft 364 kts 335°
2026-05-05 19:51 -12.30003 -77.08913 14236 ft 364 kts 335°
2026-05-05 19:51 -12.27723 -77.10049 13774 ft 364 kts 335°
2026-05-05 19:51 -12.25442 -77.11188 13254 ft 365 kts 335°
2026-05-05 19:51 -12.23160 -77.12326 12762 ft 365 kts 335°
2026-05-05 19:52 -12.20884 -77.13462 12293 ft 363 kts 334°
2026-05-05 19:52 -12.18622 -77.14589 11833 ft 362 kts 334°
2026-05-05 19:52 -12.16362 -77.15716 11375 ft 361 kts 334°
2026-05-05 19:52 -12.14109 -77.16839 10913 ft 359 kts 334°
2026-05-05 19:53 -12.11866 -77.17958 10462 ft 358 kts 334°
2026-05-05 19:53 -12.09633 -77.19070 10021 ft 357 kts 334°
2026-05-05 19:53 -12.07402 -77.20175 9505 ft 357 kts 334°
2026-05-05 19:53 -12.05177 -77.21278 9037 ft 355 kts 334°
2026-05-05 19:54 -12.02962 -77.22376 8583 ft 352 kts 334°
2026-05-05 19:54 -12.00775 -77.23486 8130 ft 350 kts 333°
2026-05-05 19:54 -11.98619 -77.24613 7631 ft 343 kts 333°
2026-05-05 19:54 -11.96544 -77.25693 7223 ft 328 kts 333°
2026-05-05 19:55 -11.94578 -77.26715 6817 ft 316 kts 333°
2026-05-05 19:55 -11.92652 -77.27712 6416 ft 305 kts 334°
2026-05-05 19:55 -11.90765 -77.28646 5957 ft 298 kts 334°
2026-05-05 19:55 -11.88924 -77.29555 5528 ft 290 kts 334°
2026-05-05 19:56 -11.87134 -77.30420 5143 ft 281 kts 339°
2026-05-05 19:56 -11.85245 -77.30648 4715 ft 273 kts 11°
2026-05-05 19:56 -11.83575 -77.29826 4336 ft 266 kts 41°
2026-05-05 19:56 -11.82507 -77.28329 4031 ft 258 kts 63°
2026-05-05 19:57 -11.81739 -77.26724 3785 ft 246 kts 62°
2026-05-05 19:57 -11.81270 -77.25675 3585 ft 237 kts 70°
2026-05-05 19:57 -11.81246 -77.24036 3195 ft 232 kts 107°
2026-05-05 19:57 -11.82114 -77.22703 2837 ft 224 kts 141°
2026-05-05 19:58 -11.83413 -77.21917 2575 ft 211 kts 154°
2026-05-05 19:58 -11.84702 -77.21270 2331 ft 203 kts 155°
2026-05-05 19:58 -11.85937 -77.20666 2124 ft 194 kts 155°
2026-05-05 19:58 -11.87103 -77.20089 2065 ft 178 kts 155°
2026-05-05 19:59 -11.88149 -77.19571 2059 ft 160 kts 156°
2026-05-05 19:59 -11.89164 -77.19071 2088 ft 165 kts 156°
2026-05-05 19:59 -11.90176 -77.18569 2134 ft 159 kts 155°
2026-05-05 19:59 -11.91169 -77.18079 2100 ft 158 kts 156°
2026-05-05 20:00 -11.92141 -77.17589 1954 ft 155 kts 155°
2026-05-05 20:00 -11.93104 -77.17116 1767 ft 151 kts 157°
2026-05-05 20:00 -11.94040 -77.16660 1582 ft 148 kts 156°
2026-05-05 20:00 -11.94964 -77.16202 1400 ft 147 kts 156°
2026-05-05 20:01 -11.95887 -77.15744 1225 ft 148 kts 157°
2026-05-05 20:01 -11.96824 -77.15290 1014 ft 150 kts 158°
2026-05-05 20:01 -11.97760 -77.14829 798 ft 148 kts 157°
2026-05-05 20:01 -11.98674 -77.14345 643 ft 148 kts 154°
2026-05-05 20:02 -11.99583 -77.13891 416 ft 144 kts 157°
2026-05-05 20:02 -12.00485 -77.13467 237 ft 142 kts 154°
2026-05-05 20:02 -12.01373 -77.13024 64 ft 141 kts 156°
2026-05-05 20:02 -12.02170 -77.12632 47 ft 100 kts 154°
2026-05-05 20:03 -12.02555 -77.12444 52 ft 32 kts 153°
2026-05-05 20:03 -12.02706 -77.12324 56 ft 18 kts 131°
2026-05-05 20:03 -12.02762 -77.12247 60 ft 10 kts 124°
2026-05-05 20:03 -12.02799 -77.12192 62 ft 8 kts 124°
2026-05-05 20:04 -12.02828 -77.12150 64 ft 7 kts 126°
2026-05-05 20:04 -12.02862 -77.12120 65 ft 7 kts 149°
2026-05-05 20:04 -12.02920 -77.12090 64 ft 12 kts 154°
2026-05-05 20:04 -12.03004 -77.12049 68 ft 14 kts 153°
2026-05-05 20:05 -12.03093 -77.12004 66 ft 15 kts 154°
2026-05-05 20:05 -12.03162 -77.11968 64 ft 7 kts 141°
2026-05-05 20:05 -12.03166 -77.11927 76 ft 5 kts 82°
2026-05-05 20:05 -12.03170 -77.11902 77 ft 3 kts 107°
2026-05-05 20:06 -12.03170 -77.11873 84 ft 6 kts 76°
2026-05-05 20:06 -12.03159 -77.11847 84 ft 3 kts 64°
2026-05-05 20:06 -12.03154 -77.11837 87 ft 1 kts 64°